Estación municipal de Susqueda - Veïnat del Coll (La Selva, )

Consulta los datos en tiempo real de la estación municipal de Susqueda - Veïnat del Coll





Hora UTC 04:55
Temperatura 18.7 ºC
Humedad 65.8 %
Presión 1020.7 hPa
Pluja 0.0 mm
Velocidad viento 13.5 km/h
Dirección viento SE
Radiación solar 0.4 W/m²

Datos diarios 2026-08-31



Hora UTC (invierno +1h; verano +2h)
Temperatura (ºC) Humedad (%) Presión (hPa) Velocidad viento (km/h) Precipitación (mm) Radiación solar (W/m²)
Hora UTC Aire Humedad Presión Vel. Dir. Vel. Max Dir. Intent. máx 5 min. Rad. Sol.
00:05 20.7 55.2 1021.0 0.3 NW 0.3 NE 0.0 0.1
00:10 20.7 55.5 1021.0 0.7 NE 7.4 ENE 0.0 0.1
00:15 20.8 55.2 1021.0 0.5 ENE 4.2 ENE 0.0 0.1
00:20 20.9 55.4 1021.0 2.5 ENE 6.0 ENE 0.0 0.1
00:25 20.8 55.3 1021.0 2.9 E 5.3 ESE 0.0 0.1
00:30 20.8 55.3 1021.0 3.2 E 9.5 ENE 0.0 0.1
00:35 20.6 55.9 1021.0 2.9 ESE 4.2 SE 0.0 0.1
00:40 20.4 56.4 1021.0 3.1 ESE 5.3 E 0.0 0.1
00:45 20.3 57.2 1020.9 3.4 ESE 6.0 ESE 0.0 0.1
00:50 20.2 57.5 1020.9 3.9 ESE 8.1 E 0.0 0.1
00:55 20.1 57.5 1020.8 4.1 ESE 7.8 E 0.0 0.1
01:00 20.0 57.4 1020.8 5.4 ESE 10.6 SE 0.0 0.1
01:05 20.1 56.3 1020.8 9.1 SE 13.8 SE 0.0 0.1
01:10 20.3 55.6 1020.8 8.8 SE 12.4 ESE 0.0 0.1
01:15 20.2 55.5 1020.8 8.7 SE 11.6 SE 0.0 0.1
01:20 20.2 56.1 1020.8 8.8 SE 13.1 SE 0.0 0.1
01:25 20.2 56.0 1020.8 10.6 SE 15.2 SE 0.0 0.1
01:30 20.2 55.7 1020.8 11.7 SE 15.5 SE 0.0 0.1
01:35 20.2 55.8 1020.8 12.8 SE 16.9 SE 0.0 0.1
01:40 20.2 56.3 1020.8 12.2 SE 15.9 SE 0.0 0.1
01:45 20.4 56.6 1020.8 10.9 SE 15.5 ESE 0.0 0.1
01:50 20.4 57.1 1020.8 11.7 SE 20.1 SSE 0.0 0.1
01:55 20.4 56.5 1020.8 9.7 SE 18.0 SE 0.0 0.1
02:00 20.2 56.7 1020.8 7.8 SSE 15.2 SE 0.0 0.1
02:05 19.9 56.7 1020.8 8.9 SSE 17.3 SSE 0.0 0.1
02:10 19.7 57.8 1020.8 8.0 SSE 17.3 SE 0.0 0.1
02:15 19.7 59.2 1020.8 8.3 SSE 16.2 SSE 0.0 0.1
02:20 19.7 60.2 1020.8 7.6 SSE 16.6 SE 0.0 0.1
02:25 19.7 60.4 1020.8 9.1 SSE 17.3 SE 0.0 0.1
02:30 19.7 60.7 1020.8 9.2 SSE 19.1 SE 0.0 0.1
02:35 19.6 61.4 1020.8 9.4 SSE 19.4 SE 0.0 0.1
02:40 19.6 62.0 1020.8 10.2 SE 17.3 SSE 0.0 0.1
02:45 19.7 61.8 1020.8 10.6 SE 18.0 SE 0.0 0.1
02:50 19.8 61.2 1020.8 12.5 SE 21.5 SE 0.0 0.1
02:55 19.7 61.5 1020.8 13.0 SE 19.8 SE 0.0 0.1
03:00 19.5 62.0 1020.8 14.4 SE 20.8 SSE 0.0 0.1
03:05 19.4 62.5 1020.8 12.6 SE 19.8 SE 0.0 0.1
03:10 19.3 62.9 1020.8 14.7 SE 20.5 ESE 0.0 0.1
03:15 19.3 63.4 1020.8 13.4 SE 20.1 ESE 0.0 0.1
03:20 19.2 63.8 1020.8 13.9 SE 20.5 SSE 0.0 0.1
03:25 19.2 64.1 1020.8 13.0 SE 17.6 SE 0.0 0.1
03:30 19.0 65.3 1020.8 12.3 SE 17.3 SE 0.0 0.1
03:35 19.0 65.3 1020.7 11.6 SE 16.2 SE 0.0 0.1
03:40 19.0 65.1 1020.7 10.9 SE 17.3 SSE 0.0 0.1
03:45 19.0 65.3 1020.8 13.3 SE 19.8 SE 0.0 0.1
03:50 18.9 65.8 1020.8 12.9 SE 22.2 SE 0.0 0.1
03:55 18.9 66.1 1020.8 11.8 SE 20.8 SSE 0.0 0.1
04:00 18.8 65.8 1020.8 13.2 SE 19.8 SE 0.0 0.1
04:05 18.8 66.3 1020.8 15.2 SE 20.5 ESE 0.0 0.1
04:10 18.9 66.0 1020.8 11.0 SE 17.3 SE 0.0 0.1
04:15 18.8 66.3 1020.8 9.1 SSE 16.2 SE 0.0 0.1
04:20 18.7 66.6 1020.8 8.7 SE 15.5 SE 0.0 0.1
04:25 18.8 66.2 1020.7 9.1 SE 15.5 SE 0.0 0.1
04:30 18.8 66.2 1020.7 9.0 SSE 14.8 SE 0.0 0.1
04:35 18.7 66.4 1020.7 10.7 SE 17.3 SSE 0.0 0.1
04:40 18.7 66.4 1020.7 10.3 SSE 18.7 SE 0.0 0.1
04:45 18.8 65.9 1020.7 11.5 SE 19.4 SE 0.0 0.1
04:50 18.8 65.6 1020.7 11.8 SE 19.4 SE 0.0 0.1
04:55 18.7 65.8 1020.7 13.5 SE 20.1 SE 0.0 0.4
Máxima 20.9 66.6 1021.0 15.2 SE 22.2 SE 0.0 0.4
Mínima 18.7 55.2 1020.7
Total 0.0